TPC802 NFFN-NGFU

Flight info

Callsign TPC802
Flight time 1h 21m
Altitude 43000
Route ALPHA NN A578 TESAR DCT SEMUT DCT BIKEN
Aircraft C750/M-SBDE3FGHRWXY/S

Departure

Time 2026-04-28 13:13
Airport Nadi International Airport (NFFN)

Arrival

Time 2026-04-28 14:34
Airport Funafuti International Airport (NGFU)
Time Latitude Longitude Altitude Speed Heading
2026-04-28 12:55 -17.75415 177.44962 28 ft 0 kts 103°
2026-04-28 13:08 -17.75411 177.44968 28 ft 2 kts 48°
2026-04-28 13:08 -17.75404 177.44965 28 ft 1 kts 317°
2026-04-28 13:09 -17.75400 177.44955 28 ft 4 kts 298°
2026-04-28 13:09 -17.75359 177.44921 28 ft 11 kts 349°
2026-04-28 13:09 -17.75297 177.44919 28 ft 9 kts
2026-04-28 13:09 -17.75239 177.44930 28 ft 8 kts 12°
2026-04-28 13:10 -17.75189 177.44941 29 ft 7 kts 12°
2026-04-28 13:10 -17.75146 177.44952 29 ft 6 kts 13°
2026-04-28 13:10 -17.75109 177.44962 29 ft 5 kts 15°
2026-04-28 13:10 -17.75078 177.44966 29 ft 4 kts 350°
2026-04-28 13:11 -17.75058 177.44953 29 ft 3 kts 311°
2026-04-28 13:11 -17.75049 177.44936 29 ft 3 kts 296°
2026-04-28 13:11 -17.75040 177.44902 29 ft 7 kts 279°
2026-04-28 13:11 -17.75024 177.44841 29 ft 11 kts 285°
2026-04-28 13:12 -17.75015 177.44743 28 ft 14 kts 242°
2026-04-28 13:12 -17.75129 177.44640 27 ft 43 kts 217°
2026-04-28 13:12 -17.75677 177.44198 31 ft 145 kts 218°
2026-04-28 13:12 -17.76494 177.43508 571 ft 158 kts 218°
2026-04-28 13:13 -17.77358 177.42753 1290 ft 169 kts 217°
2026-04-28 13:13 -17.78287 177.41984 2150 ft 169 kts 217°
2026-04-28 13:13 -17.79155 177.41143 3039 ft 176 kts 227°
2026-04-28 13:13 -17.79721 177.39969 3701 ft 191 kts 259°
2026-04-28 13:14 -17.79546 177.38614 4545 ft 186 kts 290°
2026-04-28 13:14 -17.78784 177.37496 5201 ft 197 kts 324°
2026-04-28 13:14 -17.77472 177.36947 5802 ft 212 kts 357°
2026-04-28 13:14 -17.76012 177.37136 6678 ft 212 kts 15°
2026-04-28 13:15 -17.74571 177.37500 7581 ft 214 kts 15°
2026-04-28 13:15 -17.73101 177.37845 8459 ft 223 kts 14°
2026-04-28 13:15 -17.71505 177.38208 8993 ft 247 kts 14°
2026-04-28 13:15 -17.69740 177.38610 9454 ft 272 kts 14°
2026-04-28 13:16 -17.67809 177.39051 9942 ft 293 kts 14°
2026-04-28 13:16 -17.65775 177.39514 10540 ft 309 kts 14°
2026-04-28 13:16 -17.63590 177.40019 10771 ft 335 kts 14°
2026-04-28 13:16 -17.61231 177.40582 10949 ft 358 kts 14°
2026-04-28 13:17 -17.58791 177.41162 11732 ft 359 kts 13°
2026-04-28 13:17 -17.56334 177.41738 12472 ft 364 kts 13°
2026-04-28 13:17 -17.53846 177.42321 13171 ft 369 kts 13°
2026-04-28 13:17 -17.51328 177.42915 13866 ft 373 kts 13°
2026-04-28 13:18 -17.48779 177.43517 14495 ft 377 kts 13°
2026-04-28 13:18 -17.46211 177.44121 15161 ft 379 kts 13°
2026-04-28 13:18 -17.43629 177.44728 15807 ft 383 kts 13°
2026-04-28 13:18 -17.41020 177.45342 16477 ft 386 kts 12°
2026-04-28 13:19 -17.38387 177.45961 17164 ft 389 kts 12°
2026-04-28 13:19 -17.35731 177.46585 17840 ft 393 kts 12°
2026-04-28 13:19 -17.33044 177.47217 18495 ft 398 kts 12°
2026-04-28 13:19 -17.30333 177.47854 19139 ft 401 kts 12°
2026-04-28 13:20 -17.27603 177.48495 19795 ft 404 kts 12°
2026-04-28 13:20 -17.24847 177.49143 20471 ft 407 kts 12°
2026-04-28 13:20 -17.22072 177.49794 21135 ft 411 kts 12°
2026-04-28 13:20 -17.19271 177.50451 21805 ft 414 kts 12°
2026-04-28 13:21 -17.16444 177.51114 22472 ft 418 kts 12°
2026-04-28 13:21 -17.13597 177.51782 23139 ft 422 kts 12°
2026-04-28 13:21 -17.10719 177.52457 23754 ft 425 kts 12°
2026-04-28 13:21 -17.07860 177.53127 24288 ft 429 kts 11°
2026-04-28 13:22 -17.04935 177.53812 24843 ft 432 kts 11°
2026-04-28 13:22 -17.01989 177.54502 25396 ft 436 kts 11°
2026-04-28 13:22 -16.99010 177.55200 25930 ft 440 kts 11°
2026-04-28 13:22 -16.96009 177.55902 26474 ft 444 kts 11°
2026-04-28 13:23 -16.92981 177.56611 27010 ft 448 kts 11°
2026-04-28 13:23 -16.89934 177.57324 27554 ft 451 kts 11°
2026-04-28 13:23 -16.86852 177.58044 28091 ft 455 kts 11°
2026-04-28 13:23 -16.83744 177.58771 28617 ft 460 kts 11°
2026-04-28 13:24 -16.80608 177.59503 29136 ft 463 kts 11°
2026-04-28 13:24 -16.77449 177.60242 29647 ft 467 kts 11°
2026-04-28 13:24 -16.74266 177.60985 30119 ft 471 kts 11°
2026-04-28 13:24 -16.71054 177.61735 30546 ft 474 kts 11°
2026-04-28 13:25 -16.67827 177.62488 30984 ft 476 kts 11°
2026-04-28 13:25 -16.64601 177.63241 31638 ft 473 kts 11°
2026-04-28 13:25 -16.61396 177.63989 32272 ft 471 kts 11°
2026-04-28 13:25 -16.58203 177.64733 32873 ft 469 kts 11°
2026-04-28 13:26 -16.55025 177.65473 33499 ft 467 kts 11°
2026-04-28 13:26 -16.51903 177.66201 34094 ft 465 kts 11°
2026-04-28 13:26 -16.48751 177.66935 34623 ft 464 kts 11°
2026-04-28 13:26 -16.45604 177.67668 35126 ft 463 kts 11°
2026-04-28 13:27 -16.42461 177.68399 35630 ft 463 kts 11°
2026-04-28 13:27 -16.39322 177.69129 36142 ft 462 kts 11°
2026-04-28 13:27 -16.36190 177.69858 36666 ft 461 kts 11°
2026-04-28 13:27 -16.33058 177.70586 37199 ft 460 kts 10°
2026-04-28 13:28 -16.29933 177.71313 37732 ft 460 kts 10°
2026-04-28 13:28 -16.26814 177.72037 38279 ft 459 kts 10°
2026-04-28 13:28 -16.23694 177.72762 38800 ft 459 kts 10°
2026-04-28 13:28 -16.20581 177.73485 39269 ft 458 kts 10°
2026-04-28 13:29 -16.17473 177.74206 39753 ft 457 kts 10°
2026-04-28 13:29 -16.14373 177.74925 40242 ft 456 kts 10°
2026-04-28 13:29 -16.11276 177.75644 40722 ft 456 kts 10°
2026-04-28 13:29 -16.08181 177.76362 41190 ft 455 kts 10°
2026-04-28 13:30 -16.05094 177.77078 41642 ft 455 kts 10°
2026-04-28 13:30 -16.02007 177.77792 42080 ft 454 kts 10°
2026-04-28 13:30 -15.98908 177.78405 42472 ft 453 kts
2026-04-28 13:30 -15.95819 177.79015 42880 ft 449 kts
2026-04-28 13:31 -15.89590 177.80258 42943 ft 464 kts
2026-04-28 13:31 -15.83133 177.81527 42962 ft 480 kts
2026-04-28 13:32 -15.79832 177.82182 42966 ft 487 kts
2026-04-28 13:32 -15.73185 177.83494 42965 ft 498 kts
2026-04-28 13:33 -15.66307 177.84851 42961 ft 506 kts
2026-04-28 13:33 -15.59369 177.86219 42955 ft 508 kts
2026-04-28 13:34 -15.52416 177.87590 42953 ft 509 kts
2026-04-28 13:34 -15.45458 177.88959 42950 ft 509 kts
2026-04-28 13:35 -15.38506 177.90327 42946 ft 509 kts
2026-04-28 13:35 -15.31546 177.91695 42943 ft 509 kts
2026-04-28 13:36 -15.24634 177.93053 42937 ft 509 kts
2026-04-28 13:36 -15.17669 177.94421 42938 ft 509 kts
2026-04-28 13:37 -15.10704 177.95788 42938 ft 510 kts
2026-04-28 13:37 -15.03737 177.97154 42939 ft 510 kts
2026-04-28 13:38 -14.96758 177.98522 42937 ft 510 kts
2026-04-28 13:38 -14.89776 177.99890 42937 ft 511 kts
2026-04-28 13:39 -14.82793 178.01256 42935 ft 510 kts
2026-04-28 13:39 -14.75814 178.02621 42931 ft 510 kts
2026-04-28 13:40 -14.68834 178.03986 42931 ft 510 kts
2026-04-28 13:40 -14.61852 178.05350 42934 ft 510 kts
2026-04-28 13:41 -14.54870 178.06713 42931 ft 511 kts
2026-04-28 13:41 -14.47932 178.08066 42930 ft 511 kts
2026-04-28 13:42 -14.40953 178.09426 42931 ft 510 kts
2026-04-28 13:42 -14.33973 178.10787 42929 ft 510 kts
2026-04-28 13:43 -14.27008 178.12143 42926 ft 509 kts
2026-04-28 13:43 -14.20058 178.13495 42926 ft 508 kts
2026-04-28 13:44 -14.13103 178.14848 42927 ft 509 kts
2026-04-28 13:44 -14.06107 178.16207 42938 ft 514 kts
2026-04-28 13:45 -13.99052 178.17578 42935 ft 517 kts
2026-04-28 13:45 -13.91968 178.18953 42936 ft 518 kts
2026-04-28 13:46 -13.84876 178.20328 42928 ft 518 kts
2026-04-28 13:46 -13.77786 178.21703 42929 ft 518 kts
2026-04-28 13:47 -13.70703 178.23075 42927 ft 518 kts
2026-04-28 13:47 -13.63608 178.24449 42927 ft 518 kts
2026-04-28 13:48 -13.56523 178.25820 42927 ft 518 kts
2026-04-28 13:48 -13.49477 178.27183 42927 ft 519 kts
2026-04-28 13:49 -13.42384 178.28554 42929 ft 519 kts
2026-04-28 13:49 -13.35296 178.29923 42930 ft 518 kts
2026-04-28 13:50 -13.28207 178.31291 42928 ft 518 kts
2026-04-28 13:50 -13.22268 178.32437 42926 ft 518 kts
2026-04-28 13:51 -13.15222 178.33796 42924 ft 518 kts
2026-04-28 13:51 -13.08131 178.35162 42927 ft 518 kts
2026-04-28 13:52 -13.01045 178.36527 42924 ft 518 kts 10°
2026-04-28 13:52 -12.93955 178.37892 42922 ft 518 kts 10°
2026-04-28 13:53 -12.86874 178.39254 42916 ft 518 kts 10°
2026-04-28 13:53 -12.79788 178.40617 42917 ft 518 kts 10°
2026-04-28 13:54 -12.72697 178.41979 42909 ft 518 kts 10°
2026-04-28 13:54 -12.65609 178.43340 42926 ft 518 kts 10°
2026-04-28 13:55 -12.58527 178.44700 42925 ft 519 kts 10°
2026-04-28 13:55 -12.51428 178.46062 42923 ft 519 kts 10°
2026-04-28 13:56 -12.44333 178.47422 42921 ft 518 kts 10°
2026-04-28 13:56 -12.37239 178.48781 42920 ft 518 kts 10°
2026-04-28 13:57 -12.30151 178.50139 42918 ft 518 kts 10°
2026-04-28 13:57 -12.23054 178.51497 42920 ft 519 kts 10°
2026-04-28 13:58 -12.15961 178.52854 42917 ft 519 kts 10°
2026-04-28 13:58 -12.08864 178.54211 42917 ft 519 kts 10°
2026-04-28 13:59 -12.01764 178.55568 42916 ft 519 kts 10°
2026-04-28 13:59 -11.94679 178.56921 42913 ft 518 kts 10°
2026-04-28 14:00 -11.87592 178.58274 42915 ft 518 kts 11°
2026-04-28 14:00 -11.80512 178.59625 42918 ft 517 kts 11°
2026-04-28 14:01 -11.73476 178.60967 42918 ft 518 kts 11°
2026-04-28 14:01 -11.66349 178.62325 42913 ft 518 kts 11°
2026-04-28 14:02 -11.59313 178.63666 42910 ft 517 kts 11°
2026-04-28 14:02 -11.52239 178.65012 42913 ft 517 kts 11°
2026-04-28 14:03 -11.45163 178.66359 42910 ft 517 kts 11°
2026-04-28 14:03 -11.41608 178.67036 44365 ft 523 kts 10°
2026-04-28 14:03 -11.38001 178.67721 44210 ft 530 kts 10°
2026-04-28 14:04 -11.34442 178.68397 42574 ft 507 kts 11°
2026-04-28 14:04 -11.31007 178.69050 42730 ft 500 kts 11°
2026-04-28 14:04 -11.27588 178.69701 42869 ft 499 kts 11°
2026-04-28 14:04 -11.24165 178.70352 42897 ft 502 kts 11°
2026-04-28 14:05 -11.17242 178.71666 42902 ft 509 kts 11°
2026-04-28 14:05 -11.10248 178.72994 42900 ft 514 kts 11°
2026-04-28 14:06 -11.03190 178.74333 42891 ft 516 kts 11°
2026-04-28 14:06 -10.96174 178.75663 42892 ft 516 kts 11°
2026-04-28 14:07 -10.89114 178.77002 42895 ft 516 kts 11°
2026-04-28 14:07 -10.82064 178.78337 42895 ft 516 kts 11°
2026-04-28 14:08 -10.78561 178.79000 42618 ft 504 kts 11°
2026-04-28 14:08 -10.75157 178.79644 41911 ft 490 kts 11°
2026-04-28 14:08 -10.71849 178.80271 41269 ft 477 kts 11°
2026-04-28 14:08 -10.68625 178.80881 40652 ft 466 kts 11°
2026-04-28 14:09 -10.65467 178.81479 40047 ft 456 kts 11°
2026-04-28 14:09 -10.62373 178.82064 39455 ft 449 kts 11°
2026-04-28 14:09 -10.59307 178.82644 38870 ft 447 kts 11°
2026-04-28 14:09 -10.56251 178.83223 38243 ft 448 kts 11°
2026-04-28 14:10 -10.53182 178.83803 37653 ft 450 kts 11°
2026-04-28 14:10 -10.50089 178.84388 37058 ft 454 kts 12°
2026-04-28 14:10 -10.46971 178.84977 36455 ft 457 kts 12°
2026-04-28 14:10 -10.43836 178.85569 35852 ft 460 kts 12°
2026-04-28 14:11 -10.40682 178.86165 35241 ft 462 kts 12°
2026-04-28 14:11 -10.37516 178.86763 34630 ft 464 kts 12°
2026-04-28 14:11 -10.34336 178.87363 34018 ft 466 kts 12°
2026-04-28 14:11 -10.31143 178.87966 33359 ft 467 kts 12°
2026-04-28 14:12 -10.27942 178.88571 32745 ft 469 kts 12°
2026-04-28 14:12 -10.24729 178.89177 32126 ft 470 kts 12°
2026-04-28 14:12 -10.22597 178.89579 31713 ft 471 kts 12°
2026-04-28 14:12 -10.19901 178.90088 31188 ft 470 kts 12°
2026-04-28 14:13 -10.16683 178.90694 30565 ft 472 kts 12°
2026-04-28 14:13 -10.13443 178.91306 29939 ft 472 kts 12°
2026-04-28 14:13 -10.10232 178.91911 29276 ft 465 kts 12°
2026-04-28 14:13 -10.07061 178.92508 28663 ft 461 kts 12°
2026-04-28 14:14 -10.03920 178.93100 28057 ft 457 kts 12°
2026-04-28 14:14 -10.00809 178.93687 27455 ft 453 kts 12°
2026-04-28 14:14 -9.97703 178.94165 26860 ft 449 kts
2026-04-28 14:14 -9.94623 178.94646 26268 ft 445 kts 11°
2026-04-28 14:15 -9.91588 178.95160 25687 ft 441 kts 11°
2026-04-28 14:15 -9.88571 178.95637 25108 ft 437 kts 10°
2026-04-28 14:15 -9.85570 178.96079 24531 ft 434 kts 10°
2026-04-28 14:15 -9.82603 178.96532 23965 ft 429 kts 11°
2026-04-28 14:16 -9.79667 178.97002 23391 ft 426 kts 11°
2026-04-28 14:16 -9.76756 178.97461 22789 ft 421 kts 11°
2026-04-28 14:16 -9.73864 178.97904 22223 ft 419 kts 11°
2026-04-28 14:16 -9.70995 178.98345 21682 ft 415 kts 11°
2026-04-28 14:17 -9.68151 178.98790 21138 ft 412 kts 11°
2026-04-28 14:17 -9.65327 178.99231 20596 ft 409 kts 11°
2026-04-28 14:17 -9.62522 178.99665 20059 ft 406 kts 11°
2026-04-28 14:17 -9.59735 179.00097 19523 ft 403 kts 11°
2026-04-28 14:18 -9.56975 179.00526 18993 ft 401 kts 11°
2026-04-28 14:18 -9.54225 179.00953 18469 ft 397 kts 11°
2026-04-28 14:18 -9.51501 179.01375 17912 ft 395 kts 11°
2026-04-28 14:18 -9.48792 179.01796 17380 ft 392 kts 11°
2026-04-28 14:19 -9.46141 179.02207 16874 ft 389 kts 11°
2026-04-28 14:19 -9.43439 179.02626 16358 ft 387 kts 11°
2026-04-28 14:19 -9.40787 179.03038 15846 ft 384 kts 11°
2026-04-28 14:19 -9.38155 179.03446 15343 ft 381 kts 11°
2026-04-28 14:20 -9.35542 179.03850 14838 ft 379 kts 12°
2026-04-28 14:20 -9.32947 179.04253 14343 ft 376 kts 11°
2026-04-28 14:20 -9.30371 179.04652 13842 ft 374 kts 12°
2026-04-28 14:20 -9.27809 179.05049 13324 ft 371 kts 12°
2026-04-28 14:21 -9.25262 179.05444 12831 ft 368 kts 12°
2026-04-28 14:21 -9.22774 179.05829 12353 ft 365 kts 12°
2026-04-28 14:21 -9.20268 179.06218 11872 ft 363 kts 12°
2026-04-28 14:21 -9.17774 179.06604 11393 ft 362 kts 12°
2026-04-28 14:22 -9.16935 179.06734 11229 ft 358 kts 12°
2026-04-28 14:22 -9.15410 179.06968 10935 ft 345 kts 12°
2026-04-28 14:22 -9.13098 179.07323 10488 ft 327 kts 12°
2026-04-28 14:22 -9.10904 179.07664 10068 ft 311 kts 12°
2026-04-28 14:23 -9.08805 179.07990 9658 ft 299 kts 13°
2026-04-28 14:23 -9.06773 179.08306 9239 ft 293 kts 13°
2026-04-28 14:23 -9.04764 179.08618 8864 ft 292 kts 13°
2026-04-28 14:23 -9.02769 179.08927 8489 ft 289 kts 12°
2026-04-28 14:24 -9.00779 179.09235 8107 ft 289 kts 13°
2026-04-28 14:24 -8.98799 179.09541 7731 ft 287 kts 13°
2026-04-28 14:24 -8.96831 179.09846 7353 ft 285 kts 12°
2026-04-28 14:24 -8.94878 179.10148 6979 ft 284 kts 12°
2026-04-28 14:25 -8.92928 179.10450 6608 ft 282 kts 12°
2026-04-28 14:25 -8.90993 179.10749 6226 ft 281 kts 12°
2026-04-28 14:25 -8.89068 179.11046 5846 ft 279 kts 12°
2026-04-28 14:25 -8.87188 179.11337 5483 ft 278 kts 12°
2026-04-28 14:26 -8.85663 179.11572 5190 ft 275 kts 12°
2026-04-28 14:26 -8.84078 179.11817 4879 ft 273 kts 12°
2026-04-28 14:26 -8.82215 179.12106 4524 ft 271 kts 12°
2026-04-28 14:26 -8.80347 179.12395 4156 ft 270 kts 12°
2026-04-28 14:27 -8.78493 179.12681 3799 ft 270 kts 12°
2026-04-28 14:27 -8.76643 179.12967 3447 ft 269 kts 13°
2026-04-28 14:27 -8.74798 179.13252 3088 ft 266 kts 12°
2026-04-28 14:27 -8.73005 179.13525 2735 ft 256 kts 12°
2026-04-28 14:28 -8.71258 179.13453 2393 ft 252 kts 347°
2026-04-28 14:28 -8.69771 179.12642 2411 ft 237 kts 323°
2026-04-28 14:28 -8.68680 179.11501 2464 ft 212 kts 315°
2026-04-28 14:28 -8.67712 179.10463 2450 ft 195 kts 316°
2026-04-28 14:29 -8.66799 179.09498 2443 ft 187 kts 317°
2026-04-28 14:29 -8.65714 179.08845 2403 ft 178 kts 350°
2026-04-28 14:29 -8.64572 179.08796 2432 ft 158 kts 16°
2026-04-28 14:29 -8.63561 179.09227 2371 ft 162 kts 39°
2026-04-28 14:30 -8.62781 179.09942 2259 ft 143 kts 49°
2026-04-28 14:30 -8.62072 179.10600 2115 ft 132 kts 47°
2026-04-28 14:30 -8.61422 179.11206 1996 ft 124 kts 48°
2026-04-28 14:30 -8.60792 179.11799 1891 ft 123 kts 49°
2026-04-28 14:31 -8.60168 179.12385 1778 ft 121 kts 49°
2026-04-28 14:31 -8.59558 179.12957 1691 ft 119 kts 47°
2026-04-28 14:31 -8.58937 179.13542 1599 ft 123 kts 49°
2026-04-28 14:31 -8.58300 179.14140 1399 ft 124 kts 48°
2026-04-28 14:32 -8.57657 179.14743 1246 ft 129 kts 49°
2026-04-28 14:32 -8.56996 179.15364 1061 ft 126 kts 47°
2026-04-28 14:32 -8.56362 179.15957 904 ft 123 kts 46°
2026-04-28 14:32 -8.55749 179.16532 733 ft 119 kts 47°
2026-04-28 14:33 -8.55153 179.17101 518 ft 118 kts 47°
2026-04-28 14:33 -8.54559 179.17652 390 ft 113 kts 44°
2026-04-28 14:33 -8.53993 179.18185 252 ft 111 kts 46°
2026-04-28 14:33 -8.53425 179.18721 170 ft 111 kts 46°
2026-04-28 14:34 -8.52391 179.19682 7 ft 68 kts 44°
2026-04-28 14:34 -8.52221 179.19850 10 ft 35 kts 43°
2026-04-28 14:34 -8.52124 179.19949 8 ft 2 kts 351°
2026-04-28 14:35 -8.52122 179.19940 8 ft 4 kts 283°
2026-04-28 14:35 -8.52152 179.19906 9 ft 8 kts 219°
2026-04-28 14:35 -8.52190 179.19875 10 ft 6 kts 220°
2026-04-28 14:35 -8.52223 179.19846 10 ft 6 kts 221°
2026-04-28 14:36 -8.52253 179.19817 9 ft 6 kts 226°
2026-04-28 14:36 -8.52287 179.19784 8 ft 8 kts 221°
2026-04-28 14:36 -8.52337 179.19738 7 ft 12 kts 224°
2026-04-28 14:36 -8.52402 179.19677 6 ft 13 kts 224°
2026-04-28 14:37 -8.52465 179.19618 6 ft 12 kts 219°
2026-04-28 14:37 -8.52504 179.19564 5 ft 7 kts 273°
2026-04-28 14:37 -8.52483 179.19549 5 ft 2 kts
2026-04-28 14:37 -8.52475 179.19548 5 ft 1 kts 346°
2026-04-28 14:38 -8.52472 179.19533 5 ft 4 kts 249°
2026-04-28 14:38 -8.52480 179.19531 5 ft 0 kts 166°